Location: ?
(35.3436°N, 139.3168°E)
Time: 20:26:17
(UTC+00:00)

deb Chang Zheng 4 - Pass Details

Date: 29 October 2020
Orbit: 602 x 625 km, 98.6° (Epoch: 24 November)

Event Time Altitude Azimuth Distance (km) Brightness Sun altitude
Rises 20:07:55 0° 359° (N) 2,863 6.9 -11.7°
Reaches altitude 10° 20:10:21 10° 346° (NNW) 1,958 5.9 -11.2°
Maximum altitude 20:13:52 26° 290° (WNW) 1,210 4.5 -10.5°
Drops below altitude 10° 20:17:23 10° 234° (SW) 1,958 5.7 -9.7°
Sets 20:19:50 0° 222° (SW) 2,862 6.7 -9.3°
